Regional Weather Roundup
Issued by NWS

Home | Current Version | Previous Version | Graphics & Text | Print | Product List | Glossary On
Versions: 1 2 3 4 5 6 7 8 9 10 11 12 13 14 15 16 17 18 19 20 21 22 23 24 25 26 27 28 29 30 31 32 33 34 35 36 37 38 39 40 41 42 43 44 45 46 47 48 49 50
000
ASUS45 KSLC 201110
RWRUT

UTAH REGIONAL WEATHER ROUNDUP
NATIONAL WEATHER SERVICE SALT LAKE CITY UT
400 AM MST MON FEB 20 2017

UTZ001>011-023>025-201200-

NORTHERN UTAH

CITY           SKY/WX    TMP DP  RH WIND       PRES   REMARKS
BRIGHAM CITY     N/A     44  36  72 NW5       29.97R
HILL AFB       MOCLDY    39  32  77 SE7       29.96R WCI  34
LOGAN          MOCLDY    34  31  88 CALM      29.95R
OGDEN          CLOUDY    39  33  79 E5        29.95R
SALT LAKE CITY PTCLDY    45  35  68 S18G28    29.95R
TOOELE VALLEY  PTCLDY    45  36  70 S20G29    29.95S
WENDOVER       CLOUDY    43  30  61 S7        29.91S
HEBER CITY     MIX PCPN  32  30  93 E3        30.00S
WEST JORDAN    PTCLDY    44  42  95 SE12      29.98R

$$

UTZ011>015-024>027-201200-

CENTRAL/NORTHEAST UTAH

CITY           SKY/WX    TMP DP  RH WIND       PRES   REMARKS
PROVO AIRPORT  MOCLDY    39  34  82 E8        30.02S WCI  33
MOAB/CANYONLAN MOCLDY    36  36 100 CALM      30.05R FOG
DELTA          PTCLDY    37  32  81 S13       30.02S WCI  29
PRICE          CLOUDY    33  33 100 N3        30.06R FOG
RICHFIELD      PTCLDY    32  30  93 N1        30.07R
ROOSEVELT      CLEAR     32  32 100 SW3       30.07R
VERNAL         MOCLDY    28  27  96 W5        30.05R WCI  23

$$

UTZ013>016-019>022-027-201200-

SOUTHERN UTAH

CITY           SKY/WX    TMP DP  RH WIND       PRES   REMARKS
BRYCE CANYON   CLEAR     19  16  88 CALM      30.10S
CEDAR CITY     CLOUDY    38  36  92 S7        30.10R WCI  33
MILFORD        MOCLDY    42  34  73 S16       30.05R
ST GEORGE      CLOUDY    46  43  89 S6        30.12R
HANKSVILLE     CLOUDY    28  28 100 SE3       30.09R VSB 1/4
KANAB          CLOUDY    39  37  93 NE2       30.16R
BLANDING       CLEAR     32  31  97 N6        30.16R WCI  26

$$

REGIONAL REPORTS     COLORADO/ARIZONA

CITY           SKY/WX    TMP DP  RH WIND       PRES   REMARKS
CRAIG, CO      CLOUDY    28  26  92 SE3       30.04R FOG
GRAND JUNCTION CLEAR     37  37 100 E6        30.06R WCI  32
RIFLE, CO      CLOUDY    37  34  89 CALM      30.06R
MONTROSE, CO   CLOUDY    32  31  96 E6        30.09R WCI  26
CORTEZ, CO     CLEAR     34  33  96 E5        30.08R WCI  30
COLORADO CITY  CLOUDY    41  39  93 CALM      30.15R
PAGE, AZ       CLEAR     41  31  67 SE7       30.09F
GRAND CANYON   CLOUDY    35  35 100 VRB5      30.16S WCI  31
KINGMAN, AZ    CLOUDY    42  37  82 SE9       30.14R
FLAGSTAFF, AZ  CLOUDY    33  28  81 W5        30.16R WCI  29

$$

REGIONAL REPORTS    NEVADA/IDAHO/WYOMING

CITY           SKY/WX    TMP DP  RH WIND       PRES   REMARKS
LAS VEGAS, NV  CLOUDY    56  44  64 CALM      30.04S
ELY, NY        MOCLDY    37  30  75 S10       30.00F WCI  30
ELKO, NV       MOCLDY    39  33  79 SW8       29.88F WCI  33
POCATELLO, ID  CLOUDY    36  30  79 SW3       29.90R
BURLEY, ID     CLOUDY    41  31  67 S6        29.86F
FORT BRIDGER,    N/A     28  21  73 SW3       30.00S
EVANSTON, WY   CLOUDY    27  21  78 S9        29.98R WCI  18
ROCK SPRINGS,  CLEAR     28  24  85 W12       29.97R WCI  18

$$



USA.gov is the U.S. government's official web portal to all federal, state and local government web resources and services.